| time (UTC) | temp C | wind direction | speed KPH | gust KPH | rain 1hr cm | rain 24hr cm | rain mn cm | humidity % | barometer mb |
| 20260510230012 | 20 | 285 | 6.4 | 0.0 | 0.00 | 0.00 | 0.00 | 39 | 1015.3 |
| 20260510224529 | 19 | 291 | 6.4 | 0.0 | 0.00 | 0.00 | 0.00 | 41 | 1015.4 |
| 20260510223019 | 18 | 240 | 8.0 | 0.0 | 0.00 | 0.00 | 0.00 | 45 | 1015.7 |
| 20260510221538 | 18 | 140 | 3.2 | 0.0 | 0.00 | 0.00 | 0.00 | 45 | 1015.8 |
| 20260510220010 | 18 | 217 | 8.0 | 0.0 | 0.00 | 0.00 | 0.00 | 46 | 1015.8 |
| 20260510214514 | 19 | 213 | 8.0 | 0.0 | 0.00 | 0.00 | 0.00 | 44 | 1015.8 |
| 20260510213041 | 19 | 248 | 8.0 | 0.0 | 0.00 | 0.00 | 0.00 | 43 | 1015.6 |
| 20260510211505 | 19 | 255 | 6.4 | 0.0 | 0.00 | 0.00 | 0.00 | 45 | 1016.0 |
| 20260510210025 | 18 | 229 | 3.2 | 0.0 | 0.00 | 0.00 | 0.00 | 45 | 1016.3 |
| 20260510204556 | 18 | 309 | 4.8 | 0.0 | 0.00 | 0.00 | 0.00 | 50 | 1016.8 |
| 20260510203003 | 18 | 258 | 6.4 | 0.0 | 0.00 | 0.00 | 0.00 | 48 | 1016.5 |
| 20260510201602 | 17 | 205 | 3.2 | 0.0 | 0.00 | 0.00 | 0.00 | 51 | 1016.9 |
| 20260510201506 | 17 | 230 | 3.2 | 0.0 | 0.00 | 0.00 | 0.00 | 50 | 1016.9 |
| 20260510200036 | 17 | 323 | 3.2 | 0.0 | 0.00 | 0.00 | 0.00 | 51 | 1017.0 |
| 20260510194557 | 17 | 213 | 6.4 | 0.0 | 0.00 | 0.00 | 0.00 | 52 | 1017.2 |
| 20260510193030 | 17 | 229 | 3.2 | 0.0 | 0.00 | 0.00 | 0.00 | 52 | 1017.3 |
| 20260510191537 | 17 | 251 | 4.8 | 0.0 | 0.00 | 0.00 | 0.00 | 52 | 1017.7 |
| 20260510190033 | 16 | 205 | 8.0 | 0.0 | 0.00 | 0.00 | 0.00 | 56 | 1017.7 |
| 20260510184555 | 16 | 268 | 4.8 | 0.0 | 0.00 | 0.00 | 0.00 | 57 | 1017.8 |
| 20260510183031 | 15 | 271 | 6.4 | 0.0 | 0.00 | 0.00 | 0.00 | 58 | 1018.2 |
| 20260510181540 | 15 | 182 | 3.2 | 0.0 | 0.00 | 0.00 | 0.00 | 63 | 1018.7 |
| 20260510180050 | 14 | 193 | 3.2 | 0.0 | 0.00 | 0.00 | 0.00 | 64 | 1019.3 |
| 20260510174545 | 14 | 327 | 4.8 | 0.0 | 0.00 | 0.00 | 0.00 | 66 | 1019.4 |
| 20260510173059 | 13 | 109 | 3.2 | 0.0 | 0.00 | 0.00 | 0.00 | 72 | 1019.3 |
| 20260510173001 | 13 | 107 | 3.2 | 0.0 | 0.00 | 0.00 | 0.00 | 71 | 1019.3 |
| 20260510171527 | 13 | 145 | 4.8 | 0.0 | 0.00 | 0.00 | 0.00 | 73 | 1019.5 |
| 20260510170015 | 12 | 110 | 1.6 | 0.0 | 0.00 | 0.00 | 0.00 | 77 | 1019.6 |
| 20260510164548 | 12 | 169 | 4.8 | 0.0 | 0.00 | 0.00 | 0.00 | 85 | 1019.2 |
| 20260510163057 | 11 | 164 | 4.8 | 0.0 | 0.00 | 0.00 | 0.00 | 88 | 1019.4 |
| 20260510161502 | 11 | 100 | 4.8 | 0.0 | 0.00 | 0.00 | 0.00 | 89 | 1019.4 |
| 20260510160027 | 10 | 80 | 6.4 | 0.0 | 0.00 | 0.00 | 0.00 | 91 | 1018.6 |
| 20260510154525 | 9 | 353 | 3.2 | 0.0 | 0.00 | 0.00 | 0.00 | 90 | 1018.9 |
| 20260510153023 | 9 | 80 | 4.8 | 0.0 | 0.00 | 0.00 | 0.00 | 90 | 1019.0 |
| 20260510151525 | 9 | 97 | 4.8 | 0.0 | 0.00 | 0.00 | 0.00 | 89 | 1019.3 |
| 20260510150030 | 9 | 31 | 6.4 | 0.0 | 0.00 | 0.00 | 0.00 | 89 | 1019.0 |
| 20260510144531 | 9 | 17 | 4.8 | 0.0 | 0.00 | 0.00 | 0.00 | 90 | 1019.0 |
| 20260510143004 | 9 | 70 | 6.4 | 0.0 | 0.00 | 0.00 | 0.00 | 89 | 1018.9 |
| 20260510141512 | 9 | 326 | 9.7 | 0.0 | 0.00 | 0.00 | 0.00 | 89 | 1018.8 |
| 20260510140019 | 9 | 357 | 6.4 | 0.0 | 0.00 | 0.00 | 0.00 | 89 | 1018.2 |
| 20260510134534 | 9 | 336 | 6.4 | 0.0 | 0.00 | 0.00 | 0.00 | 89 | 1017.8 |
| 20260510133057 | 9 | 1 | 4.8 | 0.0 | 0.00 | 0.00 | 0.00 | 89 | 1018.1 |
| 20260510131513 | 8 | 299 | 4.8 | 0.0 | 0.00 | 0.00 | 0.00 | 90 | 1017.9 |
| 20260510130028 | 9 | 349 | 3.2 | 0.0 | 0.00 | 0.00 | 0.00 | 90 | 1016.6 |
| 20260510124521 | 9 | 353 | 4.8 | 0.0 | 0.00 | 0.00 | 0.00 | 90 | 1016.3 |
| 20260510123110 | 9 | 44 | 3.2 | 0.0 | 0.00 | 0.00 | 0.00 | 90 | 1016.0 |
| 20260510123003 | 9 | 44 | 3.2 | 0.0 | 0.00 | 0.00 | 0.00 | 90 | 1016.0 |
| 20260510121522 | 8 | 45 | 3.2 | 0.0 | 0.00 | 0.00 | 0.00 | 90 | 1015.6 |
| 20260510120050 | 8 | 327 | 3.2 | 0.0 | 0.00 | 0.00 | 0.00 | 90 | 1014.4 |
| 20260510114554 | 8 | 27 | 3.2 | 0.0 | 0.00 | 0.00 | 0.00 | 90 | 1014.3 |
| 20260510113014 | 8 | 37 | 3.2 | 0.0 | 0.00 | 0.00 | 0.00 | 90 | 1014.2 |
| 20260510111519 | 8 | 326 | 1.6 | 0.0 | 0.00 | 0.00 | 0.00 | 89 | 1014.2 |
| 20260510110044 | 8 | 319 | 3.2 | 0.0 | 0.00 | 0.00 | 0.00 | 89 | 1014.1 |
| 20260510104602 | 8 | 262 | 4.8 | 0.0 | 0.00 | 0.00 | 0.00 | 89 | 1014.1 |
| 20260510103052 | 8 | 299 | 3.2 | 0.0 | 0.00 | 0.00 | 0.00 | 89 | 1014.1 |
| 20260510101554 | 9 | 326 | 4.8 | 0.0 | 0.00 | 0.00 | 0.00 | 89 | 1013.9 |
| 20260510100106 | 9 | 310 | 6.4 | 0.0 | 0.00 | 0.00 | 0.00 | 89 | 1013.1 |
| 20260510100001 | 9 | 354 | 8.0 | 0.0 | 0.00 | 0.00 | 0.00 | 89 | 1013.1 |
| 20260510094508 | 9 | 326 | 4.8 | 0.0 | 0.00 | 0.00 | 0.00 | 89 | 1012.7 |
| 20260510093016 | 9 | 358 | 3.2 | 0.0 | 0.00 | 0.00 | 0.00 | 89 | 1012.4 |
| 20260510091539 | 9 | 17 | 3.2 | 0.0 | 0.00 | 0.00 | 0.00 | 89 | 1012.0 |
| 20260510090033 | 9 | 17 | 3.2 | 0.0 | 0.00 | 0.00 | 0.00 | 89 | 1012.0 |
| 20260510084539 | 9 | 11 | 1.6 | 0.0 | 0.00 | 0.00 | 0.00 | 88 | 1011.9 |
| 20260510083038 | 9 | 35 | 1.6 | 0.0 | 0.00 | 0.00 | 0.00 | 88 | 1011.4 |
| 20260510081546 | 9 | 37 | 8.0 | 0.0 | 0.00 | 0.00 | 0.00 | 88 | 1011.5 |
| 20260510080057 | 10 | 51 | 9.7 | 0.0 | 0.00 | 0.00 | 0.00 | 87 | 1011.7 |
| 20260510074556 | 10 | 55 | 9.7 | 0.0 | 0.00 | 0.00 | 0.00 | 87 | 1011.3 |
| 20260510073037 | 10 | 62 | 6.4 | 0.0 | 0.00 | 0.00 | 0.00 | 87 | 1011.2 |
| 20260510071540 | 10 | 226 | 1.6 | 0.0 | 0.00 | 0.00 | 0.00 | 86 | 1012.0 |
| 20260510070107 | 10 | 254 | 3.2 | 0.0 | 0.00 | 0.00 | 0.00 | 86 | 1012.4 |
| 20260510070001 | 10 | 292 | 3.2 | 0.0 | 0.00 | 0.00 | 0.00 | 86 | 1012.4 |
| 20260510064512 | 10 | 75 | 1.6 | 0.0 | 0.00 | 0.00 | 0.00 | 86 | 1011.8 |
| 20260510063017 | 10 | 49 | 4.8 | 0.0 | 0.00 | 0.00 | 0.00 | 85 | 1011.3 |
| 20260510061555 | 10 | 78 | 11.3 | 0.0 | 0.00 | 0.00 | 0.00 | 85 | 1010.7 |
| 20260510060059 | 10 | 104 | 14.5 | 0.0 | 0.00 | 0.00 | 0.00 | 86 | 1010.4 |
| 20260510054507 | 10 | 92 | 14.5 | 0.0 | 0.00 | 0.00 | 0.00 | 86 | 1010.4 |
| 20260510053032 | 10 | 89 | 11.3 | 0.0 | 0.00 | 0.00 | 0.00 | 86 | 1010.6 |
| 20260510051544 | 10 | 75 | 14.5 | 0.0 | 0.00 | 0.00 | 0.00 | 85 | 1010.6 |
| 20260510050044 | 10 | 63 | 20.9 | 0.0 | 0.00 | 0.00 | 0.00 | 84 | 1010.5 |
| 20260510044614 | 11 | 39 | 14.5 | 0.0 | 0.00 | 0.00 | 0.00 | 82 | 1010.6 |
| 20260510044505 | 11 | 44 | 14.5 | 0.0 | 0.00 | 0.00 | 0.00 | 82 | 1010.6 |
| 20260510043010 | 11 | 25 | 16.1 | 0.0 | 0.00 | 0.00 | 0.00 | 80 | 1010.7 |
| 20260510041526 | 12 | 48 | 17.7 | 0.0 | 0.00 | 0.00 | 0.00 | 75 | 1010.8 |
| 20260510040047 | 14 | 344 | 19.3 | 0.0 | 0.00 | 0.00 | 0.00 | 65 | 1011.5 |
| 20260510034516 | 15 | 323 | 16.1 | 0.0 | 0.00 | 0.00 | 0.00 | 53 | 1011.2 |
| 20260510033020 | 15 | 25 | 24.1 | 0.0 | 0.00 | 0.00 | 0.00 | 50 | 1009.1 |
| 20260510031536 | 14 | 27 | 24.1 | 0.0 | 0.00 | 0.00 | 0.00 | 52 | 1006.7 |
| 20260510030038 | 15 | 41 | 14.5 | 0.0 | 0.00 | 0.00 | 0.00 | 52 | 1006.6 |
| 20260510024549 | 15 | 39 | 16.1 | 0.0 | 0.00 | 0.00 | 0.00 | 53 | 1005.6 |
| 20260510023046 | 15 | 65 | 12.9 | 0.0 | 0.00 | 0.00 | 0.00 | 52 | 1004.8 |
| 20260510021552 | 15 | 42 | 12.9 | 0.0 | 0.00 | 0.00 | 0.00 | 52 | 1004.7 |
| 20260510020100 | 16 | 69 | 9.7 | 0.0 | 0.00 | 0.00 | 0.00 | 52 | 1005.2 |
| 20260510020003 | 16 | 66 | 9.7 | 0.0 | 0.00 | 0.00 | 0.00 | 52 | 1004.8 |
| 20260510014509 | 17 | 63 | 12.9 | 0.0 | 0.00 | 0.00 | 0.00 | 48 | 1004.8 |
| 20260510013018 | 18 | 72 | 12.9 | 0.0 | 0.00 | 0.00 | 0.00 | 46 | 1004.4 |
| 20260510011541 | 18 | 86 | 14.5 | 0.0 | 0.00 | 0.00 | 0.00 | 45 | 1003.5 |
| 20260510010058 | 20 | 61 | 11.3 | 0.0 | 0.00 | 0.00 | 0.00 | 46 | 1003.0 |
| 20260510004526 | 20 | 94 | 11.3 | 0.0 | 0.00 | 0.00 | 0.00 | 41 | 1002.5 |
| 20260510003055 | 20 | 87 | 24.1 | 0.0 | 0.00 | 0.00 | 0.00 | 39 | 1002.3 |
| 20260510001507 | 24 | 68 | 25.7 | 0.0 | 0.00 | 0.00 | 0.00 | 28 | 1001.5 |
| 20260510000011 | 25 | 76 | 17.7 | 0.0 | 0.00 | 0.00 | 0.00 | 27 | 1001.5 |
| 20260509234526 | 25 | 46 | 19.3 | 0.0 | 0.00 | 0.00 | 0.00 | 26 | 1001.0 |
| 20260509233030 | 26 | 72 | 12.9 | 0.0 | 0.00 | 0.00 | 0.00 | 24 | 1000.6 |
| 20260509231607 | 26 | 34 | 12.9 | 0.0 | 0.00 | 0.00 | 0.00 | 23 | 1000.5 |
| 20260509230023 | 26 | 35 | 12.9 | 0.0 | 0.00 | 0.00 | 0.00 | 24 | 1000.9 |